ELEKTRON 1 DEB *, 18589

Orbit data source: Space-Track

ELEKTRON 1 DEB *, 18589 is space debris in LEO originally from a launch on Thu, 30 Jan 1964 UTC launched from the Tyuratam Missile And Space Complex (TTMTR). Debris objects in space refer to the collection of defunct objects orbiting the Earth. Examples of debris include non-operational satellites, rocket bodies, and fragments generated from explosions, collisions, or faulty payload assembly.

Loading next visibility...
Identifier
18589, 1964-006N
Orbit
LEO
Country
Flag of CISCIS
Related business
Manufacturer
Unknown
Mission
Spacecraft
Bus & Motor
Unknown
Mass
Unknown
Launch date (UTC)
1964-01-30 (62 years ago)
Launch vehicle
Unknown
Launch site
Tyuratam Missile And Space Complex (TTMTR)
Object type
Payload
Rocket body
Debris
Shape & HBR
Unknown shape, 0.1 m
Radar Cross Section
Small (<0.1 m²)

Expand to show TLE details & history
Last TLE update: 2 days ago

TLE from 2 days ago
0 ELEKTRON 1 DEB *
1 18589U 64006N   26032.36832191  .00005491  00000-0  27440-1 0  9990
2 18589  58.8427 176.2852 2038561 327.6403  21.3917  9.96593084425432
Epoch: 2026-02-01T08:50Z
TLE epoch observation values (Epoch: 2026-02-01T08:50:23.013Z)
Latitude
-0.00002°
Longitude
-87.88966°
Altitude
1,082.222 km
Speed
7.949 km/s
True Right ascension
11h 45m 08s
True Declination
0° 00' 00"
Sunlit
Object was in full shadow at epoch
Visualization orbit readout
Latitude
Unknown
Longitude
Unknown
Altitude
Unknown
Speed
Unknown
Apparent Right ascension
Unknown
Apparent Declination
Unknown
Sunlit
N/A
Visualization observer readout
Local Sidereal Time
09:57:58
Azimuth
Unknown
Elevation
Unknown
Doppler factor
Unknown
Orbital elements
Apogee altitude
4,601.989 km
Perigee altitude
883.329 km
Semi-major axis
9,120.796 km
Eccentricity
0.20386
Inclination
58.8427°
RAAN
176.2852°
Arg. of periapsis
327.6403°
True anomaly
32.44814°
Mean anomaly
21.3917°
Eccentric anomaly
26.62638°
Mean motion
2.49169 °/min
Orbital period
144.48 mins
BSTAR
0.02744

Documentation

Showing up to 5 results
|